Location: Champseau
(45.8333°N, 1.7667°E)
Time: 05:04:29
(UTC+00:00)

IRIDIUM 104 - Pass Details

Date: 18 April 2021
Orbit: 776 x 779 km, 86.4° (Epoch: 10 May)

Event Time Altitude Azimuth Distance (km) Brightness Sun altitude
Exits shadow 20:39:55 18° 181° (S) 1,829 5.9 -18.6°
Maximum altitude 20:43:52 89° 90° (E) 785 4.3 -19.1°
Drops below altitude 10° 20:49:07 10° 4° (N) 2,340 7.3 -19.8°
Sets 20:51:28 0° 4° (N) 3,272 8.1 -20.1°
